Flag for U.S.A. Weather past 2 weeks in Fresno, California, U.S.A.

Now
79 °F

Broken clouds.


Feels Like: 80 °F
Forecast: 71 / 95 °F
Wind: 3 mph from North

Location: Fresno Air Terminal

Current Time: Jul 22, 2014 at 1:45:33 PM

Latest Report: Jul 22, 2014 at 9:53 AM


Visibility: 10 mi

Pressure: 30.02 "Hg

Humidity: 48%

Dew point: 58 °F

Location of FresnoLocation

Historic Weather in Fresno — Graph

°F

Fresno temperature yesterday

Maximum temperature yesterday: 95 °F (at 5:53 PM)
Minimum temperature yesterday: 69 °F (at 5:53 AM)
Average temperature yesterday: 82 °F

Past Weeks' High & Low Weather Summary

 TemperatureHumidityPressure
High106 °F (Jul 8, 4:53 PM)68% (Jul 11, 5:53 AM)30.03 "Hg (Jul 11, 5:53 AM)
Low66 °F (Jul 12, 5:53 AM)7% (Jul 8, 2:53 PM)29.73 "Hg (Jul 9, 6:53 PM)
Average85 °F38%29.88 "Hg
* Reported Jul 7 9:53 AM — Jul 22 9:53 AM, Fresno, Weather by CustomWeather, © 2014

Note: Actual official high and low records may vary slightly from our data, if they occured in-between our weather recording intervals... More about our weather records

Advertising

Fresno weather history for previous 24 hours

 ConditionsComfort  
Time TempWeatherWind HumidityBarometerVisibility
9:53 AM
Jul 22
79 °FBroken clouds.3 mph48%30.02 "Hg10 mi
8:53 AM77 °FBroken clouds.6 mph50%30.01 "Hg10 mi
7:53 AM73 °FBroken clouds.6 mph57%30.00 "Hg10 mi
6:53 AM70 °FOvercast.9 mph64%29.98 "Hg10 mi
5:53 AM70 °FOvercast.7 mph64%29.97 "Hg10 mi
4:53 AM71 °FMostly cloudy.10 mph61%29.97 "Hg10 mi
3:53 AM72 °FMostly cloudy.10 mph61%29.96 "Hg10 mi
2:53 AM74 °FPartly cloudy.13 mph57%29.96 "Hg10 mi
1:53 AM76 °FPartly cloudy.12 mph54%29.96 "Hg10 mi
12:53 AM78 °FPassing clouds.13 mph50%29.95 "Hg10 mi
11:53 PM
Jul 21
80 °FPassing clouds.13 mph51%29.94 "Hg10 mi
10:53 PM83 °FPassing clouds.12 mph50%29.94 "Hg10 mi
9:53 PM85 °FPassing clouds.15 mph45%29.94 "Hg10 mi
8:53 PM88 °FScattered clouds.10 mph42%29.93 "Hg10 mi
7:53 PM91 °FScattered clouds.12 mph37%29.91 "Hg10 mi
6:53 PM93 °FPassing clouds.8 mph32%29.91 "Hg10 mi
5:53 PM95 °FScattered clouds.5 mph30%29.90 "Hg10 mi
4:53 PM94 °FPassing clouds.6 mph30%29.91 "Hg10 mi
3:53 PM94 °FPassing clouds.6 mph29%29.93 "Hg9 mi
2:53 PM92 °FScattered clouds.6 mph30%29.95 "Hg10 mi
1:53 PM92 °FScattered clouds.7 mph29%29.97 "Hg10 mi
Weather by CustomWeather, © 2014

See weather overviewHow to use our weather pages